Погода в Молочных Дворах

Россия / Тульская область     53°39′09″N   37°14′06″E
темп.,
°C
ветер,
м/с
пор.,
м/с
влажн.,
%
обл.,
%
осадки,
мм/ч
давл.,
гПа
погр.,
м
17 сентября, пт
пт1700:00+5з1175100 0.0 102011
03:00+5зюз2272100 0.0 102016
06:00+6с1272100 0.0 101953
09:00+8св335996 0.0 1019587
12:00+11всв3248100 0.0 10181292
15:00+12всв2144100 0.0 10181454
18:00+9всв4656100 0.0 1018387
21:00+7всв51073100 0.0 1019430
18 сентября, сб
сб1800:00+6всв4106794 0.0 1020354
03:00+4всв51176100 0.0 1020323
06:00+3в61376100 0.0 1021330
09:00+7в71259100 0.0 1021663
12:00+10вюв81042100 0.0 10201164
15:00+10вюв71041100 0.0 10201146
18:00+9в71145100 0.1 1019968
21:00+7вюв71364100 0.7 1019744
19 сентября, вс
вс1900:00+6вюв81582100 1.8 1019646
03:00+6в91790100 5.8 1018602
06:00+5в81694100 6.2 1017606
09:00+6вюв81695100 13.4 1017787
12:00+6в101894100 6.6 1015734
15:00+6вюв91793100 10.4 1015844
18:00+6в81694100 3.9 1014812
21:00+6в81494100 8.0 1014739
20 сентября, пн
пн2000:00+7в71395100 0.1 1013672
03:00+7в71395100 0.3 1012603
06:00+7в71396100 0.0 1012576
09:00+7в81395100 0.1 1012591
12:00+7в81393100 0.1 1012650
15:00+7в71395100 1.7 1012607
18:00+7в71395100 0.6 1011508
21:00+7в51198100 8.1 1012501
21 сентября, вт
вт2100:00+7в5997100 1.1 1012379
03:00+8вюв3699100 1.3 1011312
06:00+6ююз349687 0.1 101284
09:00+8ю2492100 0.2 1012309
12:00+10ю4673100 0.1 10121169
15:00+9ю4790100 0.3 1012485
18:00+8ююз3791100 0.1 1013482
21:00+7ю2494100 0.1 1013227